<?xml version="1.0"?>
<gpx xmlns="http://www.topografix.com/GPX/1/1" xmlns:xsi="http://www.w3.org/2001/XMLSchema-instance" version="1.1" creator="GPX RubyGem 1.0.0 -- http://dougfales.github.io/gpx/" xsi:schemaLocation="http://www.topografix.com/GPX/1/1 http://www.topografix.com/GPX/1/1/gpx.xsd">
  <metadata>
    <name/>
    <time>2026-05-09T00:45:28+00:00</time>
    <bound minlat="90.0" minlon="180.0" maxlat="-90.0" maxlon="-180.0"/>
  </metadata>
  <trk>
    <name/>
    <trkseg>
      <trkpt lat="43.483624" lon="-1.568119">
        <time>1970-01-01T00:00:00+00:00</time>
        <ele>18.0</ele>
      </trkpt>
      <trkpt lat="43.48365" lon="-1.568089">
        <time>1970-01-01T00:00:00+00:00</time>
        <ele>18.0</ele>
      </trkpt>
      <trkpt lat="43.483703" lon="-1.567967">
        <time>1970-01-01T00:00:00+00:00</time>
        <ele>18.0</ele>
      </trkpt>
      <trkpt lat="43.483712" lon="-1.567914">
        <time>1970-01-01T00:00:00+00:00</time>
        <ele>19.0</ele>
      </trkpt>
      <trkpt lat="43.483776" lon="-1.567909">
        <time>1970-01-01T00:00:00+00:00</time>
        <ele>17.0</ele>
      </trkpt>
      <trkpt lat="43.483776" lon="-1.56789">
        <time>1970-01-01T00:00:00+00:00</time>
        <ele>18.0</ele>
      </trkpt>
      <trkpt lat="43.483776" lon="-1.567871">
        <time>1970-01-01T00:00:00+00:00</time>
        <ele>18.0</ele>
      </trkpt>
      <trkpt lat="43.48376" lon="-1.567811">
        <time>1970-01-01T00:00:00+00:00</time>
        <ele>20.0</ele>
      </trkpt>
      <trkpt lat="43.483759" lon="-1.567739">
        <time>1970-01-01T00:00:00+00:00</time>
        <ele>22.0</ele>
      </trkpt>
      <trkpt lat="43.483759" lon="-1.567686">
        <time>1970-01-01T00:00:00+00:00</time>
        <ele>23.0</ele>
      </trkpt>
      <trkpt lat="43.483807" lon="-1.567617">
        <time>1970-01-01T00:00:00+00:00</time>
        <ele>24.0</ele>
      </trkpt>
      <trkpt lat="43.48385" lon="-1.567541">
        <time>1970-01-01T00:00:00+00:00</time>
        <ele>24.0</ele>
      </trkpt>
      <trkpt lat="43.483876" lon="-1.567527">
        <time>1970-01-01T00:00:00+00:00</time>
        <ele>23.0</ele>
      </trkpt>
      <trkpt lat="43.483895" lon="-1.567498">
        <time>1970-01-01T00:00:00+00:00</time>
        <ele>23.0</ele>
      </trkpt>
      <trkpt lat="43.483866" lon="-1.56738">
        <time>1970-01-01T00:00:00+00:00</time>
        <ele>24.0</ele>
      </trkpt>
      <trkpt lat="43.483868" lon="-1.567251">
        <time>1970-01-01T00:00:00+00:00</time>
        <ele>25.0</ele>
      </trkpt>
      <trkpt lat="43.483932" lon="-1.56705">
        <time>1970-01-01T00:00:00+00:00</time>
        <ele>24.0</ele>
      </trkpt>
      <trkpt lat="43.483968" lon="-1.566857">
        <time>1970-01-01T00:00:00+00:00</time>
        <ele>23.0</ele>
      </trkpt>
      <trkpt lat="43.483998" lon="-1.566624">
        <time>1970-01-01T00:00:00+00:00</time>
        <ele>22.0</ele>
      </trkpt>
      <trkpt lat="43.4841" lon="-1.566685">
        <time>1970-01-01T00:00:00+00:00</time>
        <ele>19.0</ele>
      </trkpt>
      <trkpt lat="43.484096" lon="-1.566743">
        <time>1970-01-01T00:00:00+00:00</time>
        <ele>19.0</ele>
      </trkpt>
      <trkpt lat="43.484096" lon="-1.566743">
        <time>1970-01-01T00:00:00+00:00</time>
        <ele>19.0</ele>
      </trkpt>
      <trkpt lat="43.4841" lon="-1.566685">
        <time>1970-01-01T00:00:00+00:00</time>
        <ele>19.0</ele>
      </trkpt>
      <trkpt lat="43.483998" lon="-1.566624">
        <time>1970-01-01T00:00:00+00:00</time>
        <ele>22.0</ele>
      </trkpt>
      <trkpt lat="43.483968" lon="-1.566857">
        <time>1970-01-01T00:00:00+00:00</time>
        <ele>23.0</ele>
      </trkpt>
      <trkpt lat="43.483932" lon="-1.56705">
        <time>1970-01-01T00:00:00+00:00</time>
        <ele>24.0</ele>
      </trkpt>
      <trkpt lat="43.483868" lon="-1.567251">
        <time>1970-01-01T00:00:00+00:00</time>
        <ele>25.0</ele>
      </trkpt>
      <trkpt lat="43.483866" lon="-1.56738">
        <time>1970-01-01T00:00:00+00:00</time>
        <ele>24.0</ele>
      </trkpt>
      <trkpt lat="43.483895" lon="-1.567498">
        <time>1970-01-01T00:00:00+00:00</time>
        <ele>23.0</ele>
      </trkpt>
      <trkpt lat="43.483876" lon="-1.567527">
        <time>1970-01-01T00:00:00+00:00</time>
        <ele>23.0</ele>
      </trkpt>
      <trkpt lat="43.48385" lon="-1.567541">
        <time>1970-01-01T00:00:00+00:00</time>
        <ele>24.0</ele>
      </trkpt>
      <trkpt lat="43.483807" lon="-1.567617">
        <time>1970-01-01T00:00:00+00:00</time>
        <ele>24.0</ele>
      </trkpt>
      <trkpt lat="43.483759" lon="-1.567686">
        <time>1970-01-01T00:00:00+00:00</time>
        <ele>23.0</ele>
      </trkpt>
      <trkpt lat="43.483759" lon="-1.567739">
        <time>1970-01-01T00:00:00+00:00</time>
        <ele>22.0</ele>
      </trkpt>
      <trkpt lat="43.48376" lon="-1.567811">
        <time>1970-01-01T00:00:00+00:00</time>
        <ele>20.0</ele>
      </trkpt>
      <trkpt lat="43.483776" lon="-1.567871">
        <time>1970-01-01T00:00:00+00:00</time>
        <ele>18.0</ele>
      </trkpt>
      <trkpt lat="43.483776" lon="-1.56789">
        <time>1970-01-01T00:00:00+00:00</time>
        <ele>18.0</ele>
      </trkpt>
      <trkpt lat="43.483776" lon="-1.567909">
        <time>1970-01-01T00:00:00+00:00</time>
        <ele>17.0</ele>
      </trkpt>
      <trkpt lat="43.483712" lon="-1.567914">
        <time>1970-01-01T00:00:00+00:00</time>
        <ele>19.0</ele>
      </trkpt>
      <trkpt lat="43.483703" lon="-1.567967">
        <time>1970-01-01T00:00:00+00:00</time>
        <ele>18.0</ele>
      </trkpt>
      <trkpt lat="43.48365" lon="-1.568089">
        <time>1970-01-01T00:00:00+00:00</time>
        <ele>18.0</ele>
      </trkpt>
      <trkpt lat="43.483624" lon="-1.568119">
        <time>1970-01-01T00:00:00+00:00</time>
        <ele>18.0</ele>
      </trkpt>
    </trkseg>
  </trk>
</gpx>
